Home   Weather   Trinidad   Past weeks

Flag for Uruguay Past Weather in Trinidad, Uruguay — Yesterday and Last 2 Weeks

Now
55 °F

Rain. Mostly cloudy.


Feels Like: 53 °F
Forecast: 47 / 58 °F
Wind: 9 mph from West

Location: Carrasco

Current Time: Apr 26, 2017 at 7:12:31 am

Latest Report: Apr 26, 2017 at 6:00 am


Visibility: 2 mi

Pressure: 29.47 "Hg

Humidity: 94%

Dew Point: 54 °F

Location of TrinidadLocation

Past Weather in Trinidad — Graph

°F

Trinidad Temperature Yesterday

Maximum temperature yesterday: 68 °F (at 12:00 pm)
Minimum temperature yesterday: 59 °F (at 5:00 am)
Average temperature yesterday: 63 °F

High & Low Weather Summary for the Past Weeks

 TemperatureHumidityPressure
High75 °F (Apr 24, 2:00 pm)100% (Apr 19, 8:00 pm)30.15 "Hg (Apr 19, 8:00 pm)
Low46 °F (Apr 23, 2:00 am)29% (Apr 24, 2:00 pm)29.42 "Hg (Apr 26, 12:25 am)
Average62 °F79%29.87 "Hg
* Reported Apr 19 4:00 am — Apr 26 6:00 am, Trinidad, Weather by CustomWeather, © 2017

Note: Actual official high and low records may vary slightly from our data, if they occured in-between our weather recording intervals... More about our weather records

Advertising

Trinidad Weather History for the Previous 24 Hours

Scroll right to see more
 ConditionsComfort  
Time TempWeatherWind HumidityBarometerVisibility
6:00 am
Wed, Apr 26
55 °FRain. Mostly cloudy.9 mph94%29.47 "Hg2 mi
5:00 am55 °FLight rain. Mostly cloudy.9 mph94%29.47 "Hg5 mi
4:00 am55 °FLight rain. Mostly cloudy.23 mph94%29.47 "Hg5 mi
3:35 am57 °FLight rain. Mostly cloudy.17 mph94%29.47 "Hg4 mi
3:00 am57 °FRain. Overcast.17 mph94%29.47 "Hg2 mi
2:00 am57 °FRain. Overcast.23 mph100%29.45 "Hg3 mi
1:00 am59 °FRain. Overcast.21 mph94%29.45 "Hg3 mi
12:25 am59 °FRain. Overcast.23 mph94%29.42 "Hg2 mi
12:00 am57 °FRain. Overcast.24 mph94%29.47 "Hg1 mi
11:00 pm
Tue, Apr 25
59 °FRain. Overcast.28 mph94%29.47 "Hg2 mi
10:05 pm63 °FRain. Overcast.17 mph100%29.50 "Hg1 mi
9:00 pm63 °FMild.No wind100%N/A1 mi
8:30 pm63 °FFog.No wind100%29.53 "Hg1 mi
8:00 pm64 °FPassing clouds.No wind94%29.53 "Hg2 mi
7:00 pm64 °FDrizzle. Mostly cloudy.No wind100%29.53 "Hg2 mi
6:00 pm66 °FDrizzle. Mostly cloudy.1 mph88%29.56 "Hg1 mi
5:41 pm66 °FDrizzle. Cloudy.3 mph94%29.56 "Hg1 mi
5:00 pm66 °FScattered showers. Cloudy.5 mph83%29.56 "Hg5 mi
4:00 pm66 °FCloudy.8 mph83%29.59 "HgN/A
3:00 pm66 °FMostly cloudy.9 mph83%29.62 "HgN/A
2:00 pm66 °FMostly cloudy.7 mph83%29.65 "HgN/A
1:00 pm68 °FMostly cloudy.6 mph78%29.68 "HgN/A
12:00 pm68 °FMostly cloudy.8 mph78%29.71 "HgN/A
11:00 am64 °FBroken clouds.7 mph94%29.74 "HgN/A
10:00 am64 °FBroken clouds.5 mph94%29.77 "Hg4 mi
9:18 am63 °FFog.7 mph94%29.77 "Hg2 mi
9:00 am61 °FFog.7 mph100%29.77 "Hg2 mi
8:00 am59 °FFog.6 mph100%29.77 "Hg0 mi
7:29 am61 °FDense fog.5 mph94%29.77 "Hg1 mi
7:00 am59 °FFog.2 mph94%29.77 "Hg2 mi
Weather by CustomWeather, © 2017

See weather overviewHow to use our weather pages